Year,Month,Day,Hour,Minute,Value (Times are PST for windgust in km/hr)
2017,11,12,00,00,3.20
2017,11,12,00,01,3.20
2017,11,12,00,02,3.20
2017,11,12,00,03,3.20
2017,11,12,00,04,3.20
2017,11,12,00,05,3.20
2017,11,12,00,06,3.20
2017,11,12,00,07,3.20
2017,11,12,00,08,3.20
2017,11,12,00,09,3.20
2017,11,12,00,10,3.20
2017,11,12,00,11,1.60
2017,11,12,00,12,1.60
2017,11,12,00,13,1.60
2017,11,12,00,15,1.60
2017,11,12,00,16,1.60
2017,11,12,00,17,1.60
2017,11,12,00,18,1.60
2017,11,12,00,19,8.10
2017,11,12,00,20,4.80
2017,11,12,00,21,8.10
2017,11,12,00,22,14.50
2017,11,12,00,23,17.70
2017,11,12,00,24,17.70
2017,11,12,00,25,14.50
2017,11,12,00,26,19.30
2017,11,12,00,27,19.30
2017,11,12,00,28,17.70
2017,11,12,00,29,14.50
2017,11,12,00,30,17.70
2017,11,12,00,31,14.50
2017,11,12,00,32,19.30
2017,11,12,00,33,19.30
2017,11,12,00,34,14.50
2017,11,12,00,35,16.10
2017,11,12,00,36,19.30
2017,11,12,00,37,17.70
2017,11,12,00,38,20.90
2017,11,12,00,39,20.90
2017,11,12,00,40,20.90
2017,11,12,00,41,24.20
2017,11,12,00,42,17.70
2017,11,12,00,43,16.10
2017,11,12,00,44,20.90
2017,11,12,00,45,19.30
2017,11,12,00,46,19.30
2017,11,12,00,47,20.90
2017,11,12,00,48,20.90
2017,11,12,00,49,19.30
2017,11,12,00,50,24.20
2017,11,12,00,51,17.70
2017,11,12,00,52,16.10
2017,11,12,00,53,19.30
2017,11,12,00,54,16.10
2017,11,12,00,55,16.10
2017,11,12,00,56,16.10
2017,11,12,00,57,14.50
2017,11,12,00,58,11.30
2017,11,12,00,59,12.90
2017,11,12,01,00,9.60
2017,11,12,01,01,12.90
2017,11,12,01,02,12.90
2017,11,12,01,03,12.90
2017,11,12,01,04,14.50
2017,11,12,01,05,11.30
2017,11,12,01,06,14.50
2017,11,12,01,07,6.40
2017,11,12,01,08,8.10
2017,11,12,01,09,9.60
2017,11,12,01,10,8.10
2017,11,12,01,11,11.30
2017,11,12,01,12,6.40
2017,11,12,01,13,3.20
2017,11,12,01,14,8.10
2017,11,12,01,15,6.40
2017,11,12,01,16,6.40
2017,11,12,01,17,3.20
2017,11,12,01,18,3.20
2017,11,12,01,19,3.20
2017,11,12,01,20,3.20
2017,11,12,01,21,1.60
2017,11,12,01,22,1.60
2017,11,12,01,23,1.60
2017,11,12,01,24,1.60
2017,11,12,01,25,1.60
2017,11,12,01,26,1.60
2017,11,12,01,27,1.60
2017,11,12,01,41,1.60
2017,11,12,01,42,3.20
2017,11,12,01,43,3.20
2017,11,12,01,44,3.20
2017,11,12,01,45,3.20
2017,11,12,01,46,4.80
2017,11,12,01,47,4.80
2017,11,12,01,48,4.80
2017,11,12,01,49,4.80
2017,11,12,01,50,9.60
2017,11,12,01,51,9.60
2017,11,12,01,52,9.60
2017,11,12,01,53,9.60
2017,11,12,01,54,6.40
2017,11,12,01,55,6.40
2017,11,12,01,56,6.40
2017,11,12,01,57,6.40
2017,11,12,01,58,6.40
2017,11,12,01,59,6.40
2017,11,12,02,00,6.40
2017,11,12,02,01,4.80
2017,11,12,02,02,6.40
2017,11,12,02,03,4.80
2017,11,12,02,04,6.40
2017,11,12,02,05,4.80
2017,11,12,02,06,6.40
2017,11,12,02,07,6.40
2017,11,12,02,08,4.80
2017,11,12,02,09,4.80
2017,11,12,02,10,3.20
2017,11,12,02,11,3.20
2017,11,12,02,12,3.20
2017,11,12,02,13,4.80
2017,11,12,02,14,4.80
2017,11,12,02,15,4.80
2017,11,12,02,16,4.80
2017,11,12,02,17,4.80
2017,11,12,02,18,3.20
2017,11,12,02,19,3.20
2017,11,12,02,20,1.60
2017,11,12,02,21,1.60
2017,11,12,02,22,1.60
2017,11,12,02,24,1.60
2017,11,12,02,26,1.60
2017,11,12,02,27,1.60
2017,11,12,02,29,1.60
2017,11,12,02,36,1.60
2017,11,12,02,37,1.60
2017,11,12,02,38,3.20
2017,11,12,02,39,4.80
2017,11,12,02,40,4.80
2017,11,12,02,41,3.20
2017,11,12,02,42,3.20
2017,11,12,02,43,3.20
2017,11,12,02,44,3.20
2017,11,12,02,45,3.20
2017,11,12,02,46,4.80
2017,11,12,02,47,4.80
2017,11,12,02,48,3.20
2017,11,12,02,49,3.20
2017,11,12,02,50,3.20
2017,11,12,02,51,3.20
2017,11,12,02,52,4.80
2017,11,12,02,53,4.80
2017,11,12,02,54,3.20
2017,11,12,02,55,4.80
2017,11,12,02,56,6.40
2017,11,12,02,57,6.40
2017,11,12,02,58,6.40
2017,11,12,02,59,4.80
2017,11,12,03,00,4.80
2017,11,12,03,01,4.80
2017,11,12,03,02,4.80
2017,11,12,03,03,4.80
2017,11,12,03,04,4.80
2017,11,12,03,05,3.20
2017,11,12,03,06,3.20
2017,11,12,03,07,3.20
2017,11,12,03,08,3.20
2017,11,12,03,09,1.60
2017,11,12,03,10,3.20
2017,11,12,03,13,3.20
2017,11,12,03,14,3.20
2017,11,12,03,15,3.20
2017,11,12,03,16,3.20
2017,11,12,03,17,1.60
2017,11,12,03,24,4.80
2017,11,12,03,25,3.20
2017,11,12,03,26,6.40
2017,11,12,03,27,11.30
2017,11,12,03,28,12.90
2017,11,12,03,29,14.50
2017,11,12,03,30,12.90
2017,11,12,03,31,11.30
2017,11,12,03,32,11.30
2017,11,12,03,33,12.90
2017,11,12,03,34,12.90
2017,11,12,03,35,11.30
2017,11,12,03,36,11.30
2017,11,12,03,37,11.30
2017,11,12,03,38,11.30
2017,11,12,03,39,11.30
2017,11,12,03,40,9.60
2017,11,12,03,41,9.60
2017,11,12,03,42,9.60
2017,11,12,03,43,9.60
2017,11,12,03,44,9.60
2017,11,12,03,45,9.60
2017,11,12,03,46,6.40
2017,11,12,03,47,6.40
2017,11,12,03,48,6.40
2017,11,12,03,49,9.60
2017,11,12,03,50,9.60
2017,11,12,03,51,9.60
2017,11,12,03,52,6.40
2017,11,12,03,53,9.60
2017,11,12,03,54,12.90
2017,11,12,03,55,12.90
2017,11,12,03,56,12.90
2017,11,12,03,57,12.90
2017,11,12,03,58,11.30
2017,11,12,03,59,9.60
2017,11,12,04,00,14.50
2017,11,12,04,01,16.10
2017,11,12,04,02,14.50
2017,11,12,04,03,16.10
2017,11,12,04,04,16.10
2017,11,12,04,05,14.50
2017,11,12,04,06,16.10
2017,11,12,04,07,16.10
2017,11,12,04,08,12.90
2017,11,12,04,09,14.50
2017,11,12,04,10,16.10
2017,11,12,04,11,14.50
2017,11,12,04,12,14.50
2017,11,12,04,13,14.50
2017,11,12,04,14,17.70
2017,11,12,04,15,16.10
2017,11,12,04,16,14.50
2017,11,12,04,17,14.50
2017,11,12,04,18,16.10
2017,11,12,04,19,14.50
2017,11,12,04,20,17.70
2017,11,12,04,21,14.50
2017,11,12,04,22,14.50
2017,11,12,04,23,16.10
2017,11,12,04,24,17.70
2017,11,12,04,25,17.70
2017,11,12,04,26,17.70
2017,11,12,04,27,17.70
2017,11,12,04,28,17.70
2017,11,12,04,29,17.70
2017,11,12,04,30,19.30
2017,11,12,04,31,19.30
2017,11,12,04,32,17.70
2017,11,12,04,33,16.10
2017,11,12,04,34,16.10
2017,11,12,04,35,14.50
2017,11,12,04,36,14.50
2017,11,12,04,37,14.50
2017,11,12,04,38,14.50
2017,11,12,04,39,11.30
2017,11,12,04,40,16.10
2017,11,12,04,41,16.10
2017,11,12,04,42,14.50
2017,11,12,04,43,17.70
2017,11,12,04,44,11.30
2017,11,12,04,45,14.50
2017,11,12,04,46,14.50
2017,11,12,04,47,16.10
2017,11,12,04,48,16.10
2017,11,12,04,49,20.90
2017,11,12,04,50,19.30
2017,11,12,04,51,16.10
2017,11,12,04,52,14.50
2017,11,12,04,53,12.90
2017,11,12,04,54,11.30
2017,11,12,04,55,17.70
2017,11,12,04,56,20.90
2017,11,12,04,57,16.10
2017,11,12,04,58,14.50
2017,11,12,04,59,14.50
2017,11,12,05,00,14.50
2017,11,12,05,01,14.50
2017,11,12,05,02,12.90
2017,11,12,05,03,12.90
2017,11,12,05,04,14.50
2017,11,12,05,05,14.50
2017,11,12,05,06,12.90
2017,11,12,05,07,14.50
2017,11,12,05,08,12.90
2017,11,12,05,09,11.30
2017,11,12,05,10,8.10
2017,11,12,05,11,11.30
2017,11,12,05,12,16.10
2017,11,12,05,13,16.10
2017,11,12,05,14,12.90
2017,11,12,05,15,14.50
2017,11,12,05,16,11.30
2017,11,12,05,17,11.30
2017,11,12,05,18,12.90
2017,11,12,05,19,6.40
2017,11,12,05,20,4.80
2017,11,12,05,21,9.60
2017,11,12,05,22,9.60
2017,11,12,05,23,8.10
2017,11,12,05,24,4.80
2017,11,12,05,25,8.10
2017,11,12,05,26,11.30
2017,11,12,05,27,12.90
2017,11,12,05,28,6.40
2017,11,12,05,29,4.80
2017,11,12,05,30,8.10
2017,11,12,05,31,11.30
2017,11,12,05,32,8.10
2017,11,12,05,33,9.60
2017,11,12,05,34,8.10
2017,11,12,05,35,8.10
2017,11,12,05,36,6.40
2017,11,12,05,37,6.40
2017,11,12,05,38,4.80
2017,11,12,05,39,6.40
2017,11,12,05,40,4.80
2017,11,12,05,41,6.40
2017,11,12,05,42,4.80
2017,11,12,05,43,4.80
2017,11,12,05,44,6.40
2017,11,12,05,45,11.30
2017,11,12,05,46,8.10
2017,11,12,05,47,8.10
2017,11,12,05,48,8.10
2017,11,12,05,49,8.10
2017,11,12,05,50,11.30
2017,11,12,05,51,14.50
2017,11,12,05,52,14.50
2017,11,12,05,53,16.10
2017,11,12,05,54,12.90
2017,11,12,05,55,16.10
2017,11,12,05,56,17.70
2017,11,12,05,57,16.10
2017,11,12,05,58,14.50
2017,11,12,05,59,16.10
2017,11,12,06,00,12.90
2017,11,12,06,01,19.30
2017,11,12,06,02,14.50
2017,11,12,06,03,19.30
2017,11,12,06,04,17.70
2017,11,12,06,05,14.50
2017,11,12,06,06,17.70
2017,11,12,06,07,16.10
2017,11,12,06,08,14.50
2017,11,12,06,09,14.50
2017,11,12,06,10,16.10
2017,11,12,06,11,16.10
2017,11,12,06,12,19.30
2017,11,12,06,13,16.10
2017,11,12,06,14,17.70
2017,11,12,06,15,19.30
2017,11,12,06,16,19.30
2017,11,12,06,17,19.30
2017,11,12,06,18,19.30
2017,11,12,06,19,19.30
2017,11,12,06,20,20.90
2017,11,12,06,21,17.70
2017,11,12,06,22,16.10
2017,11,12,06,23,16.10
2017,11,12,06,24,17.70
2017,11,12,06,25,17.70
2017,11,12,06,26,17.70
2017,11,12,06,27,19.30
2017,11,12,06,28,20.90
2017,11,12,06,29,19.30
2017,11,12,06,30,19.30
2017,11,12,06,31,17.70
2017,11,12,06,32,19.30
2017,11,12,06,33,19.30
2017,11,12,06,34,20.90
2017,11,12,06,35,22.50
2017,11,12,06,36,20.90
2017,11,12,06,37,20.90
2017,11,12,06,38,22.50
2017,11,12,06,39,20.90
2017,11,12,06,40,20.90
2017,11,12,06,41,19.30
2017,11,12,06,42,27.40
2017,11,12,06,43,22.50
2017,11,12,06,44,20.90
2017,11,12,06,45,24.20
2017,11,12,06,46,22.50
2017,11,12,06,47,22.50
2017,11,12,06,48,22.50
2017,11,12,06,49,22.50
2017,11,12,06,50,25.70
2017,11,12,06,51,20.90
2017,11,12,06,52,24.20
2017,11,12,06,53,24.20
2017,11,12,06,54,25.70
2017,11,12,06,55,20.90
2017,11,12,06,56,22.50
2017,11,12,06,57,24.20
2017,11,12,06,58,22.50
2017,11,12,06,59,20.90
2017,11,12,07,00,20.90
2017,11,12,07,01,19.30
2017,11,12,07,02,24.20
2017,11,12,07,03,24.20
2017,11,12,07,04,20.90
2017,11,12,07,05,20.90
2017,11,12,07,06,19.30
2017,11,12,07,07,19.30
2017,11,12,07,08,17.70
2017,11,12,07,09,17.70
2017,11,12,07,10,20.90
2017,11,12,07,11,22.50
2017,11,12,07,12,17.70
2017,11,12,07,13,17.70
2017,11,12,07,14,16.10
2017,11,12,07,15,17.70
2017,11,12,07,16,17.70
2017,11,12,07,17,20.90
2017,11,12,07,18,16.10
2017,11,12,07,19,16.10
2017,11,12,07,20,17.70
2017,11,12,07,21,17.70
2017,11,12,07,22,17.70
2017,11,12,07,23,22.50
2017,11,12,07,24,20.90
2017,11,12,07,25,22.50
2017,11,12,07,26,19.30
2017,11,12,07,27,19.30
2017,11,12,07,28,22.50
2017,11,12,07,29,22.50
2017,11,12,07,30,20.90
2017,11,12,07,31,19.30
2017,11,12,07,32,20.90
2017,11,12,07,33,20.90
2017,11,12,07,34,22.50
2017,11,12,07,35,22.50
2017,11,12,07,36,20.90
2017,11,12,07,37,19.30
2017,11,12,07,38,22.50
2017,11,12,07,39,22.50
2017,11,12,07,40,20.90
2017,11,12,07,41,19.30
2017,11,12,07,42,22.50
2017,11,12,07,43,22.50
2017,11,12,07,44,22.50
2017,11,12,07,45,24.20
2017,11,12,07,46,24.20
2017,11,12,07,47,24.20
2017,11,12,07,48,24.20
2017,11,12,07,49,24.20
2017,11,12,07,50,24.20
2017,11,12,07,51,24.20
2017,11,12,07,52,22.50
2017,11,12,07,53,24.20
2017,11,12,07,54,24.20
2017,11,12,07,55,24.20
2017,11,12,07,56,25.70
2017,11,12,07,57,22.50
2017,11,12,07,58,22.50
2017,11,12,07,59,24.20
2017,11,12,08,00,22.50
2017,11,12,08,01,20.90
2017,11,12,08,02,22.50
2017,11,12,08,03,25.70
2017,11,12,08,04,25.70
2017,11,12,08,05,22.50
2017,11,12,08,06,24.20
2017,11,12,08,07,20.90
2017,11,12,08,08,22.50
2017,11,12,08,09,20.90
2017,11,12,08,10,22.50
2017,11,12,08,11,24.20
2017,11,12,08,12,25.70
2017,11,12,08,13,24.20
2017,11,12,08,14,19.30
2017,11,12,08,15,20.90
2017,11,12,08,16,17.70
2017,11,12,08,17,17.70
2017,11,12,08,18,16.10
2017,11,12,08,19,17.70
2017,11,12,08,20,17.70
2017,11,12,08,21,14.50
2017,11,12,08,22,16.10
2017,11,12,08,23,16.10
2017,11,12,08,24,14.50
2017,11,12,08,25,16.10
2017,11,12,08,26,17.70
2017,11,12,08,27,16.10
2017,11,12,08,28,16.10
2017,11,12,08,29,16.10
2017,11,12,08,30,19.30
2017,11,12,08,31,16.10
2017,11,12,08,32,16.10
2017,11,12,08,33,16.10
2017,11,12,08,34,17.70
2017,11,12,08,35,14.50
2017,11,12,08,36,16.10
2017,11,12,08,37,16.10
2017,11,12,08,38,16.10
2017,11,12,08,39,16.10
2017,11,12,08,40,16.10
2017,11,12,08,41,16.10
2017,11,12,08,42,14.50
2017,11,12,08,43,12.90
2017,11,12,08,44,14.50
2017,11,12,08,45,14.50
2017,11,12,08,46,12.90
2017,11,12,08,47,12.90
2017,11,12,08,48,11.30
2017,11,12,08,49,12.90
2017,11,12,08,50,14.50
2017,11,12,08,51,11.30
2017,11,12,08,52,12.90
2017,11,12,08,53,12.90
2017,11,12,08,54,12.90
2017,11,12,08,55,16.10
2017,11,12,08,56,14.50
2017,11,12,08,57,14.50
2017,11,12,08,58,12.90
2017,11,12,08,59,14.50
2017,11,12,09,00,12.90
2017,11,12,09,01,12.90
2017,11,12,09,02,14.50
2017,11,12,09,03,12.90
2017,11,12,09,04,14.50
2017,11,12,09,05,17.70
2017,11,12,09,06,16.10
2017,11,12,09,07,16.10
2017,11,12,09,08,16.10
2017,11,12,09,09,16.10
2017,11,12,09,10,17.70
2017,11,12,09,11,17.70
2017,11,12,09,12,17.70
2017,11,12,09,13,14.50
2017,11,12,09,14,14.50
2017,11,12,09,15,16.10
2017,11,12,09,16,16.10
2017,11,12,09,17,16.10
2017,11,12,09,18,14.50
2017,11,12,09,19,14.50
2017,11,12,09,20,14.50
2017,11,12,09,21,16.10
2017,11,12,09,22,17.70
2017,11,12,09,23,17.70
2017,11,12,09,24,16.10
2017,11,12,09,25,17.70
2017,11,12,09,26,19.30
2017,11,12,09,27,19.30
2017,11,12,09,28,17.70
2017,11,12,09,29,19.30
2017,11,12,09,30,17.70
2017,11,12,09,31,17.70
2017,11,12,09,32,17.70
2017,11,12,09,33,17.70
2017,11,12,09,34,17.70
2017,11,12,09,35,17.70
2017,11,12,09,36,17.70
2017,11,12,09,37,17.70
2017,11,12,09,38,19.30
2017,11,12,09,39,17.70
2017,11,12,09,40,14.50
2017,11,12,09,41,14.50
2017,11,12,09,42,12.90
2017,11,12,09,43,14.50
2017,11,12,09,44,12.90
2017,11,12,09,45,11.30
2017,11,12,09,46,11.30
2017,11,12,09,47,11.30
2017,11,12,09,48,11.30
2017,11,12,09,49,12.90
2017,11,12,09,50,12.90
2017,11,12,09,51,14.50
2017,11,12,09,52,14.50
2017,11,12,09,53,14.50
2017,11,12,09,54,16.10
2017,11,12,09,55,17.70
2017,11,12,09,56,17.70
2017,11,12,09,57,17.70
2017,11,12,09,58,14.50
2017,11,12,09,59,11.30
2017,11,12,10,00,8.10
2017,11,12,10,01,3.20
2017,11,12,10,02,6.40
2017,11,12,10,03,8.10
2017,11,12,10,04,6.40
2017,11,12,10,05,6.40
2017,11,12,10,06,9.60
2017,11,12,10,07,9.60
2017,11,12,10,08,9.60
2017,11,12,10,09,9.60
2017,11,12,10,10,9.60
2017,11,12,10,11,9.60
2017,11,12,10,12,6.40
2017,11,12,10,13,6.40
2017,11,12,10,14,6.40
2017,11,12,10,15,4.80
2017,11,12,10,16,4.80
2017,11,12,10,17,4.80
2017,11,12,10,18,3.20
2017,11,12,10,19,1.60
2017,11,12,10,21,3.20
2017,11,12,10,22,3.20
2017,11,12,10,24,1.60
2017,11,12,10,25,3.20
2017,11,12,10,26,3.20
2017,11,12,10,27,4.80
2017,11,12,10,28,4.80
2017,11,12,10,29,3.20
2017,11,12,10,30,4.80
2017,11,12,10,31,6.40
2017,11,12,10,32,4.80
2017,11,12,10,33,3.20
2017,11,12,10,34,3.20
2017,11,12,10,35,1.60
2017,11,12,10,36,3.20
2017,11,12,10,37,3.20
2017,11,12,10,38,1.60
2017,11,12,10,39,1.60
2017,11,12,10,41,1.60
2017,11,12,10,42,1.60
2017,11,12,10,45,3.20
2017,11,12,10,48,4.80
2017,11,12,10,49,3.20
2017,11,12,10,50,4.80
2017,11,12,10,51,11.30
2017,11,12,10,52,11.30
2017,11,12,10,53,11.30
2017,11,12,10,54,12.90
2017,11,12,10,55,12.90
2017,11,12,10,56,12.90
2017,11,12,10,57,14.50
2017,11,12,10,58,16.10
2017,11,12,10,59,17.70
2017,11,12,11,00,17.70
2017,11,12,11,01,20.90
2017,11,12,11,02,20.90
2017,11,12,11,03,20.90
2017,11,12,11,04,19.30
2017,11,12,11,05,22.50
2017,11,12,11,06,20.90
2017,11,12,11,07,19.30
2017,11,12,11,08,17.70
2017,11,12,11,09,19.30
2017,11,12,11,10,22.50
2017,11,12,11,11,22.50
2017,11,12,11,12,20.90
2017,11,12,11,13,20.90
2017,11,12,11,14,22.50
2017,11,12,11,15,19.30
2017,11,12,11,16,20.90
2017,11,12,11,17,22.50
2017,11,12,11,18,22.50
2017,11,12,11,19,20.90
2017,11,12,11,20,22.50
2017,11,12,11,21,22.50
2017,11,12,11,22,22.50
2017,11,12,11,23,22.50
2017,11,12,11,24,22.50
2017,11,12,11,25,20.90
2017,11,12,11,26,19.30
2017,11,12,11,27,19.30
2017,11,12,11,28,20.90
2017,11,12,11,29,17.70
2017,11,12,11,30,14.50
2017,11,12,11,31,12.90
2017,11,12,11,32,11.30
2017,11,12,11,33,6.40
2017,11,12,11,34,4.80
2017,11,12,11,35,6.40
2017,11,12,11,36,3.20
2017,11,12,11,37,3.20
2017,11,12,11,40,3.20
2017,11,12,11,41,4.80
2017,11,12,11,42,4.80
2017,11,12,11,43,4.80
2017,11,12,11,44,6.40
2017,11,12,11,45,6.40
2017,11,12,11,46,6.40
2017,11,12,11,47,6.40
2017,11,12,11,48,8.10
2017,11,12,11,49,8.10
2017,11,12,11,50,6.40
2017,11,12,11,51,4.80
2017,11,12,11,52,3.20
2017,11,12,11,53,3.20
2017,11,12,11,54,4.80
2017,11,12,11,55,4.80
2017,11,12,11,56,3.20
2017,11,12,11,57,4.80
2017,11,12,11,58,4.80
2017,11,12,11,59,4.80
2017,11,12,12,00,3.20
2017,11,12,12,03,4.80
2017,11,12,12,04,4.80
2017,11,12,12,05,6.40
2017,11,12,12,06,3.20
2017,11,12,12,07,3.20
2017,11,12,12,08,3.20
2017,11,12,12,09,3.20
2017,11,12,12,10,3.20
2017,11,12,12,11,4.80
2017,11,12,12,12,4.80
2017,11,12,12,14,3.20
2017,11,12,12,15,6.40
2017,11,12,12,16,6.40
2017,11,12,12,17,4.80
2017,11,12,12,18,4.80
2017,11,12,12,19,3.20
2017,11,12,12,20,4.80
2017,11,12,12,21,6.40
2017,11,12,12,22,6.40
2017,11,12,12,23,6.40
2017,11,12,12,24,3.20
2017,11,12,12,25,3.20
2017,11,12,12,26,3.20
2017,11,12,12,27,3.20
2017,11,12,12,28,3.20
2017,11,12,12,30,1.60
2017,11,12,12,31,1.60
2017,11,12,12,32,4.80
2017,11,12,12,33,3.20
2017,11,12,12,34,4.80
2017,11,12,12,35,6.40
2017,11,12,12,36,6.40
2017,11,12,12,37,4.80
2017,11,12,12,38,8.10
2017,11,12,12,39,6.40
2017,11,12,12,40,4.80
2017,11,12,12,41,4.80
2017,11,12,12,42,3.20
2017,11,12,12,43,1.60
2017,11,12,12,47,1.60
2017,11,12,12,48,1.60
2017,11,12,12,51,3.20
2017,11,12,12,52,6.40
2017,11,12,12,53,8.10
2017,11,12,12,54,8.10
2017,11,12,12,55,8.10
2017,11,12,12,56,8.10
2017,11,12,12,57,8.10
2017,11,12,12,58,6.40
2017,11,12,12,59,4.80
2017,11,12,13,00,6.40
2017,11,12,13,01,4.80
2017,11,12,13,02,1.60
2017,11,12,13,03,4.80
2017,11,12,13,04,6.40
2017,11,12,13,05,6.40
2017,11,12,13,06,11.30
2017,11,12,13,07,12.90
2017,11,12,13,08,12.90
2017,11,12,13,09,12.90
2017,11,12,13,10,12.90
2017,11,12,13,11,9.60
2017,11,12,13,12,12.90
2017,11,12,13,13,12.90
2017,11,12,13,14,14.50
2017,11,12,13,15,9.60
2017,11,12,13,16,11.30
2017,11,12,13,17,9.60
2017,11,12,13,18,11.30
2017,11,12,13,19,8.10
2017,11,12,13,20,8.10
2017,11,12,13,21,9.60
2017,11,12,13,22,9.60
2017,11,12,13,23,11.30
2017,11,12,13,24,11.30
2017,11,12,13,25,8.10
2017,11,12,13,26,9.60
2017,11,12,13,27,9.60
2017,11,12,13,28,9.60
2017,11,12,13,29,11.30
2017,11,12,13,30,9.60
2017,11,12,13,31,8.10
2017,11,12,13,32,6.40
2017,11,12,13,33,4.80
2017,11,12,13,34,3.20
2017,11,12,13,35,4.80
2017,11,12,13,36,3.20
2017,11,12,13,37,6.40
2017,11,12,13,38,6.40
2017,11,12,13,39,4.80
2017,11,12,13,40,4.80
2017,11,12,13,41,6.40
2017,11,12,13,42,4.80
2017,11,12,13,43,4.80
2017,11,12,13,44,4.80
2017,11,12,13,45,3.20
2017,11,12,13,46,6.40
2017,11,12,13,47,8.10
2017,11,12,13,48,6.40
2017,11,12,13,49,6.40
2017,11,12,13,50,6.40
2017,11,12,13,51,4.80
2017,11,12,13,52,4.80
2017,11,12,13,53,1.60
2017,11,12,13,54,4.80
2017,11,12,13,55,6.40
2017,11,12,13,56,6.40
2017,11,12,13,57,6.40
2017,11,12,13,58,6.40
2017,11,12,13,59,6.40
2017,11,12,14,00,6.40
2017,11,12,14,01,6.40
2017,11,12,14,02,6.40
2017,11,12,14,03,6.40
2017,11,12,14,04,6.40
2017,11,12,14,05,8.10
2017,11,12,14,06,8.10
2017,11,12,14,07,8.10
2017,11,12,14,08,8.10
2017,11,12,14,09,3.20
2017,11,12,14,10,6.40
2017,11,12,14,11,6.40
2017,11,12,14,12,6.40
2017,11,12,14,13,8.10
2017,11,12,14,14,8.10
2017,11,12,14,15,8.10
2017,11,12,14,16,8.10
2017,11,12,14,17,8.10
2017,11,12,14,18,6.40
2017,11,12,14,19,6.40
2017,11,12,14,20,8.10
2017,11,12,14,21,8.10
2017,11,12,14,22,6.40
2017,11,12,14,23,6.40
2017,11,12,14,24,4.80
2017,11,12,14,25,6.40
2017,11,12,14,26,8.10
2017,11,12,14,27,8.10
2017,11,12,14,28,9.60
2017,11,12,14,29,8.10
2017,11,12,14,30,8.10
2017,11,12,14,31,8.10
2017,11,12,14,32,8.10
2017,11,12,14,33,8.10
2017,11,12,14,34,8.10
2017,11,12,14,35,8.10
2017,11,12,14,36,8.10
2017,11,12,14,37,6.40
2017,11,12,14,38,6.40
2017,11,12,14,39,6.40
2017,11,12,14,40,8.10
2017,11,12,14,41,8.10
2017,11,12,14,42,6.40
2017,11,12,14,43,8.10
2017,11,12,14,44,6.40
2017,11,12,14,45,8.10
2017,11,12,14,46,6.40
2017,11,12,14,47,6.40
2017,11,12,14,48,6.40
2017,11,12,14,49,6.40
2017,11,12,14,50,6.40
2017,11,12,14,51,8.10
2017,11,12,14,52,8.10
2017,11,12,14,53,4.80
2017,11,12,14,54,6.40
2017,11,12,14,55,8.10
2017,11,12,14,56,8.10
2017,11,12,14,57,6.40
2017,11,12,14,58,6.40
2017,11,12,14,59,6.40
2017,11,12,15,00,4.80
2017,11,12,15,01,6.40
2017,11,12,15,02,3.20
2017,11,12,15,03,4.80
2017,11,12,15,04,4.80
2017,11,12,15,05,6.40
2017,11,12,15,06,6.40
2017,11,12,15,07,6.40
2017,11,12,15,08,4.80
2017,11,12,15,09,4.80
2017,11,12,15,10,6.40
2017,11,12,15,11,6.40
2017,11,12,15,12,6.40
2017,11,12,15,13,8.10
2017,11,12,15,14,8.10
2017,11,12,15,15,6.40
2017,11,12,15,16,6.40
2017,11,12,15,17,6.40
2017,11,12,15,18,6.40
2017,11,12,15,19,6.40
2017,11,12,15,20,6.40
2017,11,12,15,21,8.10
2017,11,12,15,22,8.10
2017,11,12,15,23,8.10
2017,11,12,15,24,8.10
2017,11,12,15,25,9.60
2017,11,12,15,26,9.60
2017,11,12,15,27,6.40
2017,11,12,15,28,6.40
2017,11,12,15,29,8.10
2017,11,12,15,30,6.40
2017,11,12,15,31,11.30
2017,11,12,15,32,11.30
2017,11,12,15,33,8.10
2017,11,12,15,34,8.10
2017,11,12,15,35,8.10
2017,11,12,15,36,8.10
2017,11,12,15,37,8.10
2017,11,12,15,38,8.10
2017,11,12,15,39,8.10
2017,11,12,15,40,9.60
2017,11,12,15,41,8.10
2017,11,12,15,42,8.10
2017,11,12,15,43,6.40
2017,11,12,15,44,8.10
2017,11,12,15,45,11.30
2017,11,12,15,46,8.10
2017,11,12,15,47,9.60
2017,11,12,15,48,8.10
2017,11,12,15,49,8.10
2017,11,12,15,50,8.10
2017,11,12,15,51,8.10
2017,11,12,15,52,8.10
2017,11,12,15,53,11.30
2017,11,12,15,54,8.10
2017,11,12,15,55,8.10
2017,11,12,15,56,11.30
2017,11,12,15,57,9.60
2017,11,12,15,58,14.50
2017,11,12,15,59,9.60
2017,11,12,16,00,9.60
2017,11,12,16,01,8.10
2017,11,12,16,02,9.60
2017,11,12,16,03,8.10
2017,11,12,16,04,9.60
2017,11,12,16,05,9.60
2017,11,12,16,06,8.10
2017,11,12,16,07,9.60
2017,11,12,16,08,8.10
2017,11,12,16,09,9.60
2017,11,12,16,10,9.60
2017,11,12,16,11,11.30
2017,11,12,16,12,14.50
2017,11,12,16,13,12.90
2017,11,12,16,14,9.60
2017,11,12,16,15,12.90
2017,11,12,16,16,8.10
2017,11,12,16,17,6.40
2017,11,12,16,18,6.40
2017,11,12,16,19,3.20
2017,11,12,16,20,4.80
2017,11,12,16,21,6.40
2017,11,12,16,22,6.40
2017,11,12,16,23,6.40
2017,11,12,16,24,12.90
2017,11,12,16,25,11.30
2017,11,12,16,26,14.50
2017,11,12,16,27,14.50
2017,11,12,16,28,16.10
2017,11,12,16,29,14.50
2017,11,12,16,30,12.90
2017,11,12,16,31,12.90
2017,11,12,16,32,9.60
2017,11,12,16,33,11.30
2017,11,12,16,34,9.60
2017,11,12,16,35,11.30
2017,11,12,16,36,12.90
2017,11,12,16,37,17.70
2017,11,12,16,38,20.90
2017,11,12,16,39,20.90
2017,11,12,16,40,17.70
2017,11,12,16,41,19.30
2017,11,12,16,42,19.30
2017,11,12,16,43,19.30
2017,11,12,16,44,16.10
2017,11,12,16,45,12.90
2017,11,12,16,46,11.30
2017,11,12,16,47,12.90
2017,11,12,16,48,9.60
2017,11,12,16,49,9.60
2017,11,12,16,50,6.40
2017,11,12,16,51,6.40
2017,11,12,16,52,4.80
2017,11,12,16,53,4.80
2017,11,12,16,54,4.80
2017,11,12,16,55,4.80
2017,11,12,16,56,4.80
2017,11,12,16,57,4.80
2017,11,12,16,58,4.80
2017,11,12,16,59,4.80
2017,11,12,17,00,6.40
2017,11,12,17,01,6.40
2017,11,12,17,02,11.30
2017,11,12,17,03,12.90
2017,11,12,17,04,17.70
2017,11,12,17,05,17.70
2017,11,12,17,06,14.50
2017,11,12,17,07,14.50
2017,11,12,17,08,16.10
2017,11,12,17,09,16.10
2017,11,12,17,10,14.50
2017,11,12,17,11,16.10
2017,11,12,17,12,12.90
2017,11,12,17,13,6.40
2017,11,12,17,14,6.40
2017,11,12,17,15,6.40
2017,11,12,17,16,6.40
2017,11,12,17,17,3.20
2017,11,12,17,18,3.20
2017,11,12,17,19,6.40
2017,11,12,17,20,6.40
2017,11,12,17,21,4.80
2017,11,12,17,22,4.80
2017,11,12,17,23,11.30
2017,11,12,17,24,9.60
2017,11,12,17,25,8.10
2017,11,12,17,26,9.60
2017,11,12,17,27,9.60
2017,11,12,17,28,8.10
2017,11,12,17,29,6.40
2017,11,12,17,30,6.40
2017,11,12,17,31,6.40
2017,11,12,17,32,4.80
2017,11,12,17,33,3.20
2017,11,12,17,34,3.20
2017,11,12,17,35,6.40
2017,11,12,17,36,6.40
2017,11,12,17,37,6.40
2017,11,12,17,38,6.40
2017,11,12,17,39,6.40
2017,11,12,17,40,6.40
2017,11,12,17,41,6.40
2017,11,12,17,42,6.40
2017,11,12,17,43,6.40
2017,11,12,17,44,4.80
2017,11,12,17,45,4.80
2017,11,12,17,46,4.80
2017,11,12,17,47,1.60
2017,11,12,17,48,1.60
2017,11,12,17,59,6.40
2017,11,12,18,00,4.80
2017,11,12,18,01,4.80
2017,11,12,18,02,6.40
2017,11,12,18,03,6.40
2017,11,12,18,04,4.80
2017,11,12,18,05,6.40
2017,11,12,18,06,6.40
2017,11,12,18,07,6.40
2017,11,12,18,08,6.40
2017,11,12,18,09,4.80
2017,11,12,18,10,4.80
2017,11,12,18,11,1.60
2017,11,12,18,12,3.20
2017,11,12,18,13,3.20
2017,11,12,18,16,1.60
2017,11,12,18,17,3.20
2017,11,12,18,18,4.80
2017,11,12,18,19,3.20
2017,11,12,18,20,1.60
2017,11,12,18,22,3.20
2017,11,12,18,23,3.20
2017,11,12,18,24,3.20
2017,11,12,18,25,3.20
2017,11,12,18,27,1.60
2017,11,12,18,28,1.60
2017,11,12,18,29,1.60
2017,11,12,18,30,1.60
2017,11,12,18,31,3.20
2017,11,12,18,32,4.80
2017,11,12,18,33,3.20
2017,11,12,18,34,4.80
2017,11,12,18,35,3.20
2017,11,12,18,36,3.20
2017,11,12,18,37,3.20
2017,11,12,18,38,3.20
2017,11,12,18,39,1.60
2017,11,12,18,41,3.20
2017,11,12,18,42,1.60
2017,11,12,18,48,1.60
2017,11,12,18,49,4.80
2017,11,12,18,50,4.80
2017,11,12,18,51,6.40
2017,11,12,18,52,6.40
2017,11,12,18,53,8.10